Columbus, MS

6:48 AM CST on December 04, 2016 (GMT -0600)
Columbus Air Force Base

Weather History for KCBM - August, 2013

Change the Weather History Date:

Saturday, August 3, 2013

  Actual Average Record
Temperature  
Mean Temperature 80 °F -  
Max Temperature 90 °F 88 °F 103 °F (2010)
Min Temperature 70 °F 70 °F 65 °F (2015)
Cooling Degree Days 15    
Growing Degree Days 30 (Base 50)    
Moisture  
Dew Point 75 °F    
Average Humidity 83    
Maximum Humidity 100    
Minimum Humidity 58    
Precipitation  
Precipitation 0.00 in - - ()
Sea Level Pressure  
Sea Level Pressure 30.03 in    
Wind  
Wind Speed 1 mph (NW)    
Max Wind Speed 7 mph    
Max Gust Speed -    
Visibility 10 miles    
Events Rain , Thunderstorm    
Averages and records for this station are not official NWS values.
T = Trace of Precipitation, MM = Missing Value Source: NWS Daily Summary

Daily Weather History Graph

Daily Weather History Graph

Search for Another Location

Airport or City:

Trip Planner

Search our weather history database for the weather conditions in past years. The results will help you decide how hot, cold, wet, or windy it might be!

Date:

Astronomy

Aug. 03, 2013 Rise Set
Actual Time 6:07 AM CDT 7:51 PM CDT
Civil Twilight 5:40 AM CDT 8:18 PM CDT
Nautical Twilight 5:07 AM CDT 8:51 PM CDT
Astronomical Twilight 4:33 AM CDT 9:25 PM CDT
Moon 3:18 AM CDT (8/3) 5:32 PM CDT (8/3)
Length of Visible Light 14h 38m
Length of Day
13h 44m
Waning Crescent, 9% of the Moon is Illuminated
Aug 3
Waning Crescent
Aug 6
New
Aug 14
First Quarter
Aug 20
Full
Aug 28
Last Quarter

Hourly Weather History & Observations

Time (CDT) Temp. Heat Index Dew Point Humidity Pressure Visibility Wind Dir Wind Speed Gust Speed Precip Events Conditions
12:58 AM 73.6 °F - 70.5 °F 90% 30.01 in 10.0 mi Calm Calm - N/A   Clear
1:58 AM 71.6 °F - 70.0 °F 95% 30.01 in 10.0 mi Calm Calm - N/A   Clear
2:58 AM 71.4 °F - 70.0 °F 95% 30.01 in 10.0 mi Calm Calm - N/A   Clear
3:58 AM 71.2 °F - 69.3 °F 93% 29.99 in 10.0 mi Calm Calm - N/A   Clear
4:58 AM 71.2 °F - 69.8 °F 95% 29.99 in 10.0 mi Calm Calm - N/A   Clear
5:58 AM 70.9 °F - 70.3 °F 98% 29.99 in 10.0 mi Calm Calm - N/A   Mostly Cloudy
6:58 AM 72.9 °F - 71.6 °F 96% 30.01 in 10.0 mi Calm Calm - N/A   Clear
7:58 AM 77.4 °F - 72.0 °F 83% 30.04 in 10.0 mi Calm Calm - N/A   Clear
8:58 AM 82.4 °F 88.2 °F 73.2 °F 74% 30.06 in 10.0 mi WNW 3.5 mph - N/A   Clear
9:58 AM 85.6 °F 93.8 °F 74.3 °F 69% 30.04 in 10.0 mi WNW 3.5 mph - N/A   Clear
10:58 AM 87.6 °F 97.6 °F 75.6 °F 67% 30.04 in 10.0 mi NW 4.6 mph - N/A   Partly Cloudy
11:58 AM 90.1 °F 100.6 °F 75.2 °F 61% 30.05 in 10.0 mi Calm Calm - N/A   Scattered Clouds
12:58 PM 90.1 °F 98.9 °F 73.8 °F 58% 30.05 in 10.0 mi NNW 6.9 mph - N/A   Scattered Clouds
1:58 PM 90.3 °F 100.4 °F 74.7 °F 60% 30.04 in 10.0 mi Variable 2.3 mph - N/A   Scattered Clouds
2:58 PM 89.6 °F 98.7 °F 74.1 °F 60% 30.02 in 10.0 mi NW 6.9 mph - N/A   Partly Cloudy
3:58 PM 88.9 °F 98.1 °F 74.5 °F 62% 30.01 in 10.0 mi Calm Calm - N/A   Clear
4:58 PM 86.7 °F 95.9 °F 74.8 °F 68% 30.01 in 10.0 mi NNE 1.2 mph - N/A   Clear
5:58 PM 86.2 °F 95.5 °F 75.2 °F 70% 30.01 in 10.0 mi Calm Calm - N/A   Clear
6:58 PM 85.8 °F 95.1 °F 75.4 °F 71% 30.01 in 8.0 mi SE 3.5 mph - N/A   Partly Cloudy
7:58 PM 83.3 °F 92.1 °F 76.6 °F 80% 30.01 in 10.0 mi Calm Calm - N/A   Scattered Clouds
8:45 PM 80.6 °F 86.2 °F 75.2 °F 84% 30.03 in 10.0 mi Calm Calm - N/A   Light Drizzle
8:55 PM 80.6 °F 86.2 °F 75.2 °F 84% 30.03 in 10.0 mi Calm Calm - N/A   Scattered Clouds
8:58 PM 81.1 °F 87.4 °F 75.6 °F 83% 30.04 in 10.0 mi Calm Calm - 0.00 in   Scattered Clouds
8:59 PM 80.6 °F 87.1 °F 77.0 °F 89% 30.03 in 10.0 mi Calm Calm - N/A Rain Light Rain
9:01 PM 80.6 °F 87.1 °F 77.0 °F 89% 30.03 in 10.0 mi Calm Calm - N/A   Scattered Clouds
9:06 PM 80.6 °F 86.2 °F 75.2 °F 84% 30.03 in 10.0 mi Calm Calm - N/A Rain Light Rain
9:09 PM 80.6 °F 86.2 °F 75.2 °F 84% 30.03 in 10.0 mi Calm Calm - N/A   Partly Cloudy
9:55 PM 78.8 °F - 75.2 °F 89% 30.03 in 9.0 mi South 2.3 mph - N/A Thunderstorm Thunderstorm
9:58 PM 79.5 °F - 75.6 °F 88% 30.04 in 9.0 mi Calm Calm - 0.00 in Thunderstorm Thunderstorm
10:10 PM 80.6 °F 86.2 °F 75.2 °F 84% 30.05 in 10.0 mi Calm Calm - N/A Thunderstorm Partly Cloudy
10:14 PM 80.6 °F 86.2 °F 75.2 °F 84% 30.05 in 10.0 mi Calm Calm - N/A Thunderstorm Light Drizzle
10:39 PM 78.8 °F - 77.0 °F 94% 30.05 in 10.0 mi Calm Calm - N/A   Partly Cloudy
10:55 PM 78.8 °F - 77.0 °F 94% 30.05 in 10.0 mi Calm Calm - N/A   Partly Cloudy
10:58 PM 79.0 °F - 77.5 °F 95% 30.05 in 10.0 mi Calm Calm - 0.00 in   Clear
11:23 PM 78.8 °F - 78.8 °F 100% 30.05 in 10.0 mi Calm Calm - N/A   Mostly Cloudy
11:28 PM 78.8 °F - 78.8 °F 100% 30.05 in 10.0 mi Calm Calm - N/A   Mostly Cloudy
11:58 PM 78.1 °F - 77.4 °F 98% 30.05 in 10.0 mi Calm Calm - N/A   Partly Cloudy